Tracking 18980 objects as of 23-Feb-2018
HD Live streaming from Space Station
objects crossing your sky now

FENGYUN 1C DEB

Track FENGYUN 1C DEB now!
10-day predictions


NORAD ID: 30817
Int'l Code: 1999-025AVB
Perigee: 858.7 km
Apogee: 955.6 km
Inclination: 99.0 °
Period: 103.0 minutes
Semi major axis: 7278 km
RCS: 0.0075 m2 (small)
Launch date: May 10, 1999
Source: People's Republic of China (PRC)
Launch site: Taiyaun Space Center, China (TSC)

Note: This is SATELLITE DEBRIS
aabbcc
Your satellite tracking list
Your tracking list is empty




NASA's NSSDC Master Catalog

Two Line Element Set (TLE):
1 30817U 99025AVB 18053.63815708 -.00000228 +00000-0 -12712-3 0  9999
2 30817 098.9835 108.0825 0066523 222.1003 290.3368 13.98211195560607
Source of the keplerian elements: AFSPC